| time (UTC) | temp F | wind direction | speed MPH | gust MPH | rain 1hr in | rain 24hr in | rain mn in | humidity % | barometer mb |
| 20260506230704 | 78 | 184 | 6.0 | 15.0 | 0.00 | 0.00 | 0.00 | 22 | 1016.2 |
| 20260506230204 | 78 | 145 | 4.0 | 11.0 | 0.00 | 0.00 | 0.00 | 21 | 1016.3 |
| 20260506225205 | 78 | 230 | 6.0 | 15.0 | 0.00 | 0.00 | 0.00 | 23 | 1016.4 |
| 20260506224204 | 78 | 154 | 5.0 | 17.0 | 0.00 | 0.00 | 0.00 | 22 | 1016.5 |
| 20260506223704 | 78 | 159 | 6.0 | 17.0 | 0.00 | 0.00 | 0.00 | 23 | 1016.5 |
| 20260506223204 | 78 | 219 | 6.0 | 17.0 | 0.00 | 0.00 | 0.00 | 24 | 1016.6 |
| 20260506222204 | 77 | 223 | 5.0 | 13.0 | 0.00 | 0.00 | 0.00 | 24 | 1016.6 |
| 20260506221705 | 77 | 179 | 5.0 | 15.0 | 0.00 | 0.00 | 0.00 | 26 | 1016.8 |
| 20260506221204 | 77 | 98 | 6.0 | 15.0 | 0.00 | 0.00 | 0.00 | 25 | 1016.8 |
| 20260506220704 | 77 | 163 | 6.0 | 15.0 | 0.00 | 0.00 | 0.00 | 26 | 1017.0 |
| 20260506220204 | 77 | 190 | 3.0 | 13.0 | 0.00 | 0.00 | 0.00 | 26 | 1016.8 |
| 20260506215704 | 76 | 187 | 4.0 | 15.0 | 0.00 | 0.00 | 0.00 | 28 | 1017.0 |
| 20260506215205 | 76 | 222 | 7.0 | 18.0 | 0.00 | 0.00 | 0.00 | 28 | 1017.0 |
| 20260506214204 | 76 | 225 | 6.0 | 12.0 | 0.00 | 0.00 | 0.00 | 27 | 1017.1 |
| 20260506213704 | 77 | 222 | 5.0 | 13.0 | 0.00 | 0.00 | 0.00 | 26 | 1017.2 |
| 20260506211704 | 76 | 231 | 6.0 | 12.0 | 0.00 | 0.00 | 0.00 | 28 | 1017.4 |
| 20260506211204 | 76 | 247 | 5.0 | 14.0 | 0.00 | 0.00 | 0.00 | 27 | 1017.4 |
| 20260506210704 | 76 | 115 | 5.0 | 14.0 | 0.00 | 0.00 | 0.00 | 27 | 1017.4 |
| 20260506210204 | 76 | 235 | 5.0 | 14.0 | 0.00 | 0.00 | 0.00 | 28 | 1017.4 |
| 20260506205704 | 76 | 228 | 4.0 | 9.0 | 0.00 | 0.00 | 0.00 | 26 | 1017.5 |
| 20260506204704 | 76 | 179 | 5.0 | 15.0 | 0.00 | 0.00 | 0.00 | 27 | 1017.5 |
| 20260506204205 | 75 | 144 | 5.0 | 15.0 | 0.00 | 0.00 | 0.00 | 27 | 1017.6 |
| 20260506203204 | 76 | 160 | 6.0 | 16.0 | 0.00 | 0.00 | 0.00 | 26 | 1017.6 |
| 20260506202704 | 76 | 150 | 4.0 | 16.0 | 0.00 | 0.00 | 0.00 | 27 | 1017.6 |
| 20260506202204 | 76 | 71 | 3.0 | 8.0 | 0.00 | 0.00 | 0.00 | 27 | 1017.6 |
| 20260506201704 | 75 | 217 | 3.0 | 8.0 | 0.00 | 0.00 | 0.00 | 28 | 1017.6 |
| 20260506201204 | 75 | 223 | 3.0 | 9.0 | 0.00 | 0.00 | 0.00 | 27 | 1017.7 |
| 20260506200704 | 75 | 223 | 4.0 | 9.0 | 0.00 | 0.00 | 0.00 | 27 | 1017.8 |
| 20260506200204 | 75 | 154 | 3.0 | 9.0 | 0.00 | 0.00 | 0.00 | 28 | 1017.8 |
| 20260506195704 | 74 | 172 | 4.0 | 9.0 | 0.00 | 0.00 | 0.00 | 28 | 1017.8 |
| 20260506195204 | 74 | 169 | 4.0 | 10.0 | 0.00 | 0.00 | 0.00 | 28 | 1018.0 |
| 20260506194704 | 74 | 198 | 4.0 | 11.0 | 0.00 | 0.00 | 0.00 | 29 | 1018.0 |
| 20260506194204 | 73 | 163 | 5.0 | 11.0 | 0.00 | 0.00 | 0.00 | 29 | 1018.0 |
| 20260506193704 | 73 | 148 | 6.0 | 11.0 | 0.00 | 0.00 | 0.00 | 28 | 1018.1 |
| 20260506192704 | 73 | 115 | 4.0 | 8.0 | 0.00 | 0.00 | 0.00 | 30 | 1018.1 |
| 20260506192204 | 72 | 234 | 3.0 | 11.0 | 0.00 | 0.00 | 0.00 | 29 | 1018.1 |
| 20260506191704 | 72 | 236 | 4.0 | 11.0 | 0.00 | 0.00 | 0.00 | 31 | 1018.2 |
| 20260506191204 | 72 | 153 | 6.0 | 11.0 | 0.00 | 0.00 | 0.00 | 30 | 1018.3 |
| 20260506190204 | 72 | 153 | 4.0 | 13.0 | 0.00 | 0.00 | 0.00 | 30 | 1018.3 |
| 20260506185704 | 71 | 101 | 6.0 | 13.0 | 0.00 | 0.00 | 0.00 | 31 | 1018.3 |
| 20260506185204 | 72 | 112 | 5.0 | 12.0 | 0.00 | 0.00 | 0.00 | 30 | 1018.4 |
| 20260506184704 | 71 | 146 | 5.0 | 12.0 | 0.00 | 0.00 | 0.00 | 31 | 1018.4 |
| 20260506183204 | 69 | 190 | 6.0 | 13.0 | 0.00 | 0.00 | 0.00 | 32 | 1018.4 |
| 20260506182704 | 69 | 121 | 6.0 | 13.0 | 0.00 | 0.00 | 0.00 | 32 | 1018.5 |
| 20260506182204 | 69 | 90 | 5.0 | 13.0 | 0.00 | 0.00 | 0.00 | 33 | 1018.5 |
| 20260506181704 | 69 | 86 | 6.0 | 13.0 | 0.00 | 0.00 | 0.00 | 33 | 1018.6 |
| 20260506181204 | 69 | 112 | 5.0 | 13.0 | 0.00 | 0.00 | 0.00 | 33 | 1018.5 |
| 20260506180705 | 68 | 358 | 6.0 | 13.0 | 0.00 | 0.00 | 0.00 | 34 | 1018.6 |
| 20260506180204 | 68 | 134 | 6.0 | 13.0 | 0.00 | 0.00 | 0.00 | 35 | 1018.6 |
| 20260506174705 | 67 | 119 | 7.0 | 15.0 | 0.00 | 0.00 | 0.00 | 36 | 1018.6 |
| 20260506174205 | 67 | 124 | 8.0 | 12.0 | 0.00 | 0.00 | 0.00 | 35 | 1018.5 |
| 20260506173704 | 67 | 358 | 7.0 | 12.0 | 0.00 | 0.00 | 0.00 | 35 | 1018.5 |
| 20260506173204 | 67 | 131 | 6.0 | 12.0 | 0.00 | 0.00 | 0.00 | 37 | 1018.5 |
| 20260506172704 | 66 | 103 | 6.0 | 12.0 | 0.00 | 0.00 | 0.00 | 36 | 1018.5 |
| 20260506171704 | 65 | 358 | 7.0 | 12.0 | 0.00 | 0.00 | 0.00 | 40 | 1018.5 |
| 20260506171204 | 65 | 358 | 7.0 | 12.0 | 0.00 | 0.00 | 0.00 | 38 | 1018.5 |
| 20260506170704 | 65 | 358 | 6.0 | 12.0 | 0.00 | 0.00 | 0.00 | 41 | 1018.4 |
| 20260506170205 | 65 | 358 | 6.0 | 13.0 | 0.00 | 0.00 | 0.00 | 40 | 1018.4 |
| 20260506165704 | 64 | 358 | 5.0 | 13.0 | 0.00 | 0.00 | 0.00 | 41 | 1018.3 |
| 20260506165204 | 64 | 82 | 6.0 | 13.0 | 0.00 | 0.00 | 0.00 | 41 | 1018.4 |
| 20260506164704 | 64 | 88 | 7.0 | 14.0 | 0.00 | 0.00 | 0.00 | 42 | 1018.3 |
| 20260506164204 | 64 | 113 | 7.0 | 14.0 | 0.00 | 0.00 | 0.00 | 42 | 1018.4 |
| 20260506163706 | 63 | 86 | 7.0 | 14.0 | 0.00 | 0.00 | 0.00 | 43 | 1018.3 |
| 20260506163205 | 63 | 120 | 6.0 | 11.0 | 0.00 | 0.00 | 0.00 | 43 | 1018.4 |
| 20260506162704 | 62 | 86 | 5.0 | 13.0 | 0.00 | 0.00 | 0.00 | 44 | 1018.3 |
| 20260506161703 | 62 | 80 | 7.0 | 14.0 | 0.00 | 0.00 | 0.00 | 46 | 1018.3 |
| 20260506161205 | 61 | 101 | 7.0 | 14.0 | 0.00 | 0.00 | 0.00 | 46 | 1018.2 |
| 20260506160704 | 60 | 72 | 7.0 | 14.0 | 0.00 | 0.00 | 0.00 | 48 | 1018.3 |
| 20260506160204 | 60 | 81 | 7.0 | 12.0 | 0.00 | 0.00 | 0.00 | 49 | 1018.3 |
| 20260506155704 | 60 | 84 | 6.0 | 12.0 | 0.00 | 0.00 | 0.00 | 50 | 1018.3 |
| 20260506154704 | 59 | 79 | 6.0 | 11.0 | 0.00 | 0.00 | 0.00 | 50 | 1018.3 |
| 20260506154204 | 59 | 82 | 5.0 | 11.0 | 0.00 | 0.00 | 0.00 | 51 | 1018.3 |
| 20260506153705 | 58 | 81 | 5.0 | 11.0 | 0.00 | 0.00 | 0.00 | 52 | 1018.3 |
| 20260506153204 | 58 | 80 | 5.0 | 11.0 | 0.00 | 0.00 | 0.00 | 53 | 1018.3 |
| 20260506152704 | 58 | 73 | 4.0 | 10.0 | 0.00 | 0.00 | 0.00 | 54 | 1018.3 |
| 20260506152206 | 57 | 80 | 4.0 | 13.0 | 0.00 | 0.00 | 0.00 | 55 | 1018.2 |
| 20260506151704 | 57 | 53 | 5.0 | 13.0 | 0.00 | 0.00 | 0.00 | 55 | 1018.1 |
| 20260506151205 | 56 | 72 | 6.0 | 12.0 | 0.00 | 0.00 | 0.00 | 56 | 1018.2 |
| 20260506150704 | 56 | 92 | 5.0 | 11.0 | 0.00 | 0.00 | 0.00 | 56 | 1018.3 |
| 20260506150204 | 56 | 109 | 4.0 | 12.0 | 0.00 | 0.00 | 0.00 | 57 | 1018.2 |
| 20260506145704 | 55 | 76 | 5.0 | 12.0 | 0.00 | 0.00 | 0.00 | 58 | 1018.2 |
| 20260506145205 | 55 | 94 | 5.0 | 9.0 | 0.00 | 0.00 | 0.00 | 58 | 1018.2 |
| 20260506144205 | 54 | 86 | 3.0 | 8.0 | 0.00 | 0.00 | 0.00 | 60 | 1018.1 |
| 20260506143705 | 54 | 80 | 3.0 | 7.0 | 0.00 | 0.00 | 0.00 | 61 | 1018.1 |
| 20260506143204 | 53 | 83 | 3.0 | 7.0 | 0.00 | 0.00 | 0.00 | 62 | 1018.0 |
| 20260506142704 | 53 | 85 | 3.0 | 5.0 | 0.00 | 0.00 | 0.00 | 63 | 1017.8 |
| 20260506142204 | 52 | 8 | 3.0 | 5.0 | 0.00 | 0.00 | 0.00 | 64 | 1017.8 |
| 20260506141704 | 52 | 3 | 3.0 | 5.0 | 0.00 | 0.00 | 0.00 | 65 | 1017.7 |
| 20260506141204 | 51 | 358 | 2.0 | 5.0 | 0.00 | 0.00 | 0.00 | 66 | 1017.6 |
| 20260506140704 | 51 | 334 | 2.0 | 5.0 | 0.00 | 0.00 | 0.00 | 67 | 1017.6 |
| 20260506140204 | 50 | 334 | 3.0 | 5.0 | 0.00 | 0.00 | 0.00 | 67 | 1017.5 |
| 20260506135704 | 49 | 330 | 3.0 | 5.0 | 0.00 | 0.00 | 0.00 | 69 | 1017.5 |
| 20260506135204 | 49 | 330 | 3.0 | 5.0 | 0.00 | 0.00 | 0.00 | 70 | 1017.4 |
| 20260506134705 | 48 | 330 | 3.0 | 4.0 | 0.00 | 0.00 | 0.00 | 71 | 1017.4 |
| 20260506134204 | 47 | 330 | 2.0 | 4.0 | 0.00 | 0.00 | 0.00 | 73 | 1017.4 |
| 20260506133204 | 45 | 330 | 3.0 | 4.0 | 0.00 | 0.00 | 0.00 | 74 | 1017.4 |
| 20260506132704 | 45 | 330 | 3.0 | 4.0 | 0.00 | 0.00 | 0.00 | 74 | 1017.4 |
| 20260506132205 | 44 | 330 | 2.0 | 4.0 | 0.00 | 0.00 | 0.00 | 74 | 1017.3 |
| 20260506131204 | 43 | 330 | 2.0 | 5.0 | 0.00 | 0.00 | 0.00 | 76 | 1017.3 |
| 20260506130704 | 43 | 330 | 3.0 | 5.0 | 0.00 | 0.00 | 0.00 | 76 | 1017.2 |
| 20260506130205 | 42 | 330 | 4.0 | 5.0 | 0.00 | 0.00 | 0.00 | 75 | 1017.1 |
| 20260506125704 | 42 | 330 | 4.0 | 5.0 | 0.00 | 0.00 | 0.00 | 75 | 1017.0 |
| 20260506125204 | 42 | 330 | 4.0 | 5.0 | 0.00 | 0.00 | 0.00 | 74 | 1017.1 |
| 20260506124705 | 43 | 330 | 3.0 | 4.0 | 0.00 | 0.00 | 0.00 | 75 | 1017.0 |
| 20260506124205 | 42 | 330 | 3.0 | 4.0 | 0.00 | 0.00 | 0.00 | 75 | 1017.0 |
| 20260506123706 | 42 | 330 | 3.0 | 5.0 | 0.00 | 0.00 | 0.00 | 75 | 1017.0 |
| 20260506123205 | 42 | 330 | 4.0 | 5.0 | 0.00 | 0.00 | 0.00 | 75 | 1016.7 |
| 20260506122704 | 42 | 330 | 3.0 | 4.0 | 0.00 | 0.00 | 0.00 | 75 | 1016.7 |
| 20260506122204 | 42 | 330 | 3.0 | 4.0 | 0.00 | 0.00 | 0.00 | 75 | 1016.8 |
| 20260506121704 | 42 | 330 | 3.0 | 5.0 | 0.00 | 0.00 | 0.00 | 75 | 1016.7 |
| 20260506121204 | 42 | 330 | 4.0 | 5.0 | 0.00 | 0.00 | 0.00 | 75 | 1016.7 |
| 20260506120704 | 42 | 330 | 4.0 | 5.0 | 0.00 | 0.00 | 0.00 | 75 | 1016.7 |
| 20260506120205 | 42 | 330 | 4.0 | 5.0 | 0.00 | 0.00 | 0.00 | 75 | 1016.7 |
| 20260506115704 | 42 | 330 | 4.0 | 5.0 | 0.00 | 0.00 | 0.00 | 75 | 1016.7 |
| 20260506115204 | 42 | 330 | 4.0 | 5.0 | 0.00 | 0.00 | 0.00 | 75 | 1016.7 |
| 20260506114705 | 42 | 330 | 3.0 | 5.0 | 0.00 | 0.00 | 0.00 | 75 | 1016.7 |
| 20260506114204 | 42 | 330 | 4.0 | 5.0 | 0.00 | 0.00 | 0.00 | 75 | 1016.6 |
| 20260506113704 | 42 | 330 | 4.0 | 5.0 | 0.00 | 0.00 | 0.00 | 75 | 1016.6 |
| 20260506112705 | 42 | 330 | 3.0 | 6.0 | 0.00 | 0.00 | 0.00 | 76 | 1016.5 |
| 20260506112204 | 42 | 330 | 4.0 | 6.0 | 0.00 | 0.00 | 0.00 | 76 | 1016.6 |
| 20260506110704 | 42 | 330 | 4.0 | 5.0 | 0.00 | 0.00 | 0.00 | 76 | 1016.6 |
| 20260506110204 | 42 | 330 | 4.0 | 5.0 | 0.00 | 0.00 | 0.00 | 76 | 1016.6 |
| 20260506105704 | 43 | 330 | 4.0 | 5.0 | 0.00 | 0.00 | 0.00 | 76 | 1016.6 |
| 20260506105204 | 43 | 330 | 4.0 | 5.0 | 0.00 | 0.00 | 0.00 | 76 | 1016.6 |
| 20260506104704 | 43 | 330 | 4.0 | 6.0 | 0.00 | 0.00 | 0.00 | 77 | 1016.5 |
| 20260506104204 | 43 | 330 | 4.0 | 6.0 | 0.00 | 0.00 | 0.00 | 77 | 1016.5 |
| 20260506103205 | 43 | 330 | 5.0 | 6.0 | 0.00 | 0.00 | 0.00 | 77 | 1016.5 |
| 20260506102704 | 43 | 330 | 5.0 | 6.0 | 0.00 | 0.00 | 0.00 | 77 | 1016.4 |
| 20260506102204 | 43 | 330 | 5.0 | 8.0 | 0.00 | 0.00 | 0.00 | 78 | 1016.4 |
| 20260506101704 | 43 | 330 | 5.0 | 8.0 | 0.00 | 0.00 | 0.00 | 77 | 1016.4 |
| 20260506101204 | 43 | 330 | 6.0 | 8.0 | 0.00 | 0.00 | 0.00 | 78 | 1016.4 |
| 20260506100705 | 43 | 330 | 5.0 | 8.0 | 0.00 | 0.00 | 0.00 | 78 | 1016.4 |
| 20260506100204 | 43 | 329 | 5.0 | 8.0 | 0.00 | 0.00 | 0.00 | 77 | 1016.4 |
| 20260506095705 | 43 | 329 | 5.0 | 8.0 | 0.00 | 0.00 | 0.00 | 78 | 1016.5 |
| 20260506095204 | 43 | 329 | 5.0 | 8.0 | 0.00 | 0.00 | 0.00 | 78 | 1016.4 |
| 20260506094705 | 43 | 328 | 5.0 | 8.0 | 0.00 | 0.00 | 0.00 | 78 | 1016.4 |
| 20260506094206 | 43 | 327 | 5.0 | 8.0 | 0.00 | 0.00 | 0.00 | 79 | 1016.4 |
| 20260506093704 | 43 | 327 | 5.0 | 6.0 | 0.00 | 0.00 | 0.00 | 79 | 1016.4 |
| 20260506093204 | 43 | 327 | 5.0 | 6.0 | 0.00 | 0.00 | 0.00 | 79 | 1016.5 |
| 20260506092704 | 43 | 327 | 4.0 | 6.0 | 0.00 | 0.00 | 0.00 | 79 | 1016.4 |
| 20260506092204 | 43 | 327 | 4.0 | 8.0 | 0.00 | 0.00 | 0.00 | 78 | 1016.4 |
| 20260506091707 | 43 | 327 | 5.0 | 8.0 | 0.00 | 0.00 | 0.00 | 79 | 1016.4 |
| 20260506091204 | 43 | 327 | 4.0 | 8.0 | 0.00 | 0.00 | 0.00 | 78 | 1016.5 |
| 20260506090204 | 44 | 336 | 3.0 | 5.0 | 0.00 | 0.00 | 0.00 | 77 | 1016.5 |
| 20260506085704 | 44 | 336 | 4.0 | 6.0 | 0.00 | 0.00 | 0.00 | 77 | 1016.6 |
| 20260506085204 | 44 | 336 | 4.0 | 6.0 | 0.00 | 0.00 | 0.00 | 77 | 1016.6 |
| 20260506084704 | 44 | 336 | 4.0 | 6.0 | 0.00 | 0.00 | 0.00 | 77 | 1016.5 |
| 20260506084204 | 45 | 336 | 5.0 | 9.0 | 0.00 | 0.00 | 0.00 | 77 | 1016.6 |
| 20260506083705 | 45 | 336 | 5.0 | 9.0 | 0.00 | 0.00 | 0.00 | 76 | 1016.6 |
| 20260506082704 | 45 | 336 | 6.0 | 9.0 | 0.00 | 0.00 | 0.00 | 76 | 1016.4 |
| 20260506082204 | 45 | 341 | 6.0 | 9.0 | 0.00 | 0.00 | 0.00 | 76 | 1016.6 |
| 20260506081705 | 46 | 336 | 6.0 | 9.0 | 0.00 | 0.00 | 0.00 | 76 | 1016.6 |
| 20260506081204 | 46 | 334 | 6.0 | 9.0 | 0.00 | 0.00 | 0.00 | 76 | 1016.6 |
| 20260506080704 | 46 | 329 | 6.0 | 10.0 | 0.00 | 0.00 | 0.00 | 76 | 1016.6 |
| 20260506073204 | 46 | 327 | 8.0 | 13.0 | 0.00 | 0.00 | 0.00 | 79 | 1016.5 |
| 20260506072705 | 46 | 328 | 9.0 | 15.0 | 0.00 | 0.00 | 0.00 | 79 | 1016.5 |
| 20260506072205 | 46 | 321 | 10.0 | 15.0 | 0.00 | 0.00 | 0.00 | 79 | 1016.5 |
| 20260506071704 | 46 | 326 | 10.0 | 15.0 | 0.00 | 0.00 | 0.00 | 79 | 1016.5 |
| 20260506071204 | 46 | 329 | 10.0 | 14.0 | 0.00 | 0.00 | 0.00 | 78 | 1016.4 |
| 20260506070704 | 46 | 319 | 10.0 | 14.0 | 0.00 | 0.00 | 0.00 | 78 | 1016.4 |
| 20260506062204 | 47 | 318 | 7.0 | 10.0 | 0.00 | 0.00 | 0.00 | 73 | 1016.2 |
| 20260506061704 | 47 | 313 | 6.0 | 10.0 | 0.00 | 0.00 | 0.00 | 73 | 1016.3 |
| 20260506061204 | 47 | 323 | 6.0 | 10.0 | 0.00 | 0.00 | 0.00 | 73 | 1016.3 |
| 20260506060704 | 47 | 321 | 6.0 | 10.0 | 0.00 | 0.00 | 0.00 | 72 | 1016.1 |
| 20260506060204 | 48 | 338 | 6.0 | 10.0 | 0.00 | 0.00 | 0.00 | 72 | 1016.2 |
| 20260506050704 | 48 | 320 | 8.0 | 14.0 | 0.00 | 0.00 | 0.00 | 71 | 1015.7 |
| 20260506050204 | 49 | 334 | 8.0 | 12.0 | 0.00 | 0.00 | 0.00 | 71 | 1015.7 |
| 20260506044704 | 49 | 327 | 9.0 | 13.0 | 0.00 | 0.00 | 0.00 | 70 | 1015.5 |
| 20260506043204 | 49 | 315 | 7.0 | 11.0 | 0.00 | 0.00 | 0.00 | 69 | 1015.4 |
| 20260506042704 | 49 | 327 | 7.0 | 11.0 | 0.00 | 0.00 | 0.00 | 69 | 1015.3 |
| 20260506042204 | 49 | 325 | 7.0 | 11.0 | 0.00 | 0.00 | 0.00 | 68 | 1015.3 |
| 20260506041704 | 49 | 310 | 5.0 | 9.0 | 0.00 | 0.00 | 0.00 | 67 | 1015.2 |
| 20260506041204 | 49 | 326 | 4.0 | 9.0 | 0.00 | 0.00 | 0.00 | 67 | 1015.1 |
| 20260506035704 | 50 | 325 | 4.0 | 8.0 | 0.00 | 0.00 | 0.00 | 65 | 1014.7 |
| 20260506035207 | 51 | 9 | 4.0 | 8.0 | 0.00 | 0.00 | 0.00 | 64 | 1014.6 |
| 20260506034204 | 52 | 20 | 4.0 | 9.0 | 0.00 | 0.00 | 0.00 | 66 | 1014.5 |
| 20260506033704 | 52 | 49 | 4.0 | 9.0 | 0.00 | 0.00 | 0.00 | 65 | 1014.5 |
| 20260506033204 | 52 | 41 | 4.0 | 9.0 | 0.00 | 0.00 | 0.00 | 65 | 1014.5 |
| 20260506032705 | 52 | 41 | 4.0 | 8.0 | 0.00 | 0.00 | 0.00 | 64 | 1014.5 |
| 20260506032204 | 52 | 48 | 4.0 | 8.0 | 0.00 | 0.00 | 0.00 | 63 | 1014.4 |
| 20260506031704 | 53 | 51 | 4.0 | 8.0 | 0.00 | 0.00 | 0.00 | 63 | 1014.4 |
| 20260506031204 | 53 | 57 | 3.0 | 10.0 | 0.00 | 0.00 | 0.00 | 63 | 1014.3 |
| 20260506030704 | 53 | 67 | 4.0 | 10.0 | 0.00 | 0.00 | 0.00 | 62 | 1014.3 |
| 20260506025704 | 53 | 73 | 5.0 | 11.0 | 0.00 | 0.00 | 0.00 | 61 | 1014.1 |
| 20260506025204 | 54 | 68 | 5.0 | 11.0 | 0.00 | 0.00 | 0.00 | 60 | 1014.0 |
| 20260506024705 | 54 | 63 | 5.0 | 11.0 | 0.00 | 0.00 | 0.00 | 60 | 1013.9 |
| 20260506023204 | 55 | 74 | 5.0 | 12.0 | 0.00 | 0.00 | 0.00 | 58 | 1013.8 |
| 20260506022705 | 55 | 63 | 5.0 | 16.0 | 0.00 | 0.00 | 0.00 | 57 | 1013.6 |
| 20260506022204 | 56 | 77 | 5.0 | 16.0 | 0.00 | 0.00 | 0.00 | 57 | 1013.6 |
| 20260506021704 | 56 | 60 | 6.0 | 14.0 | 0.00 | 0.00 | 0.00 | 56 | 1013.5 |
| 20260506021205 | 56 | 84 | 7.0 | 14.0 | 0.00 | 0.00 | 0.00 | 55 | 1013.4 |
| 20260506020705 | 57 | 83 | 6.0 | 14.0 | 0.00 | 0.00 | 0.00 | 54 | 1013.4 |
| 20260506020204 | 57 | 61 | 6.0 | 17.0 | 0.00 | 0.00 | 0.00 | 54 | 1013.2 |
| 20260506015706 | 57 | 67 | 7.0 | 17.0 | 0.00 | 0.00 | 0.00 | 53 | 1013.1 |
| 20260506015204 | 58 | 60 | 8.0 | 17.0 | 0.00 | 0.00 | 0.00 | 53 | 1013.1 |
| 20260506014704 | 58 | 74 | 7.0 | 14.0 | 0.00 | 0.00 | 0.00 | 51 | 1013.0 |
| 20260506014204 | 58 | 70 | 7.0 | 16.0 | 0.00 | 0.00 | 0.00 | 51 | 1012.9 |
| 20260506013704 | 59 | 78 | 7.0 | 16.0 | 0.00 | 0.00 | 0.00 | 51 | 1012.9 |
| 20260506013204 | 59 | 73 | 7.0 | 16.0 | 0.00 | 0.00 | 0.00 | 49 | 1012.8 |
| 20260506012704 | 60 | 73 | 8.0 | 14.0 | 0.00 | 0.00 | 0.00 | 48 | 1012.8 |
| 20260506012204 | 60 | 68 | 7.0 | 14.0 | 0.00 | 0.00 | 0.00 | 47 | 1012.8 |
| 20260506011704 | 61 | 73 | 6.0 | 12.0 | 0.00 | 0.00 | 0.00 | 46 | 1012.8 |
| 20260506011204 | 61 | 49 | 6.0 | 12.0 | 0.00 | 0.00 | 0.00 | 46 | 1012.6 |
| 20260506010705 | 62 | 78 | 6.0 | 14.0 | 0.00 | 0.00 | 0.00 | 46 | 1012.6 |
| 20260506010204 | 62 | 81 | 7.0 | 16.0 | 0.00 | 0.00 | 0.00 | 45 | 1012.6 |
| 20260506005204 | 62 | 94 | 6.0 | 16.0 | 0.00 | 0.00 | 0.00 | 45 | 1012.4 |
| 20260506004204 | 62 | 72 | 8.0 | 19.0 | 0.00 | 0.00 | 0.00 | 45 | 1012.4 |
| 20260506003704 | 62 | 59 | 7.0 | 19.0 | 0.00 | 0.00 | 0.00 | 45 | 1012.3 |
| 20260506003205 | 62 | 77 | 7.0 | 17.0 | 0.00 | 0.00 | 0.00 | 45 | 1012.2 |
| 20260506002704 | 61 | 92 | 8.0 | 17.0 | 0.00 | 0.00 | 0.00 | 46 | 1012.2 |
| 20260506001704 | 60 | 47 | 4.0 | 10.0 | 0.00 | 0.00 | 0.00 | 50 | 1012.4 |
| 20260506001204 | 58 | 86 | 4.0 | 10.0 | 0.00 | 0.00 | 0.00 | 51 | 1012.3 |
| 20260506000705 | 58 | 304 | 4.0 | 13.0 | 0.00 | 0.00 | 0.00 | 49 | 1012.3 |
| 20260505235704 | 59 | 287 | 5.0 | 15.0 | 0.00 | 0.00 | 0.00 | 49 | 1012.2 |
| 20260505235204 | 58 | 337 | 7.0 | 15.0 | 0.00 | 0.00 | 0.00 | 49 | 1012.1 |
| 20260505234704 | 58 | 311 | 8.0 | 16.0 | 0.00 | 0.00 | 0.00 | 49 | 1012.1 |
| 20260505234204 | 58 | 331 | 9.0 | 16.0 | 0.00 | 0.00 | 0.00 | 50 | 1012.1 |
| 20260505233705 | 58 | 331 | 9.0 | 18.0 | 0.00 | 0.00 | 0.00 | 51 | 1012.1 |
| 20260505233204 | 58 | 313 | 9.0 | 18.0 | 0.00 | 0.00 | 0.00 | 50 | 1012.1 |
| 20260505232704 | 58 | 349 | 7.0 | 18.0 | 0.00 | 0.00 | 0.00 | 51 | 1012.1 |
| 20260505231704 | 56 | 358 | 9.0 | 17.0 | 0.00 | 0.00 | 0.00 | 53 | 1012.0 |